Zurück zum Katalog

STARLING 1

AktivWissenschaftPO
NORAD 57388·PAYLOAD·🇺🇸 United States

Gestartet Jul 18, 2023 von Rocket Lab Launch Complex 1

Loading…

Nächste Überflüge (nächste 24 Stunden)

TLE

AktuellSource: Space-Track

Epoche: Sep 14, 2026, 15:01 UTC

1 57388U 23100C   26257.62615909  .00001080  00000-0  78155-4 0  9996
2 57388  99.5093 296.8978 0005081   1.7445 358.3794 15.07026559173372

Verfolge STARLING 1 in Echtzeit mit AllMySat

Download on the App Store